Regional Weather Roundup
Issued by NWS

Home | Current Version | Previous Version | Text Only | Print | Product List | Glossary Off
Versions: 1 2 3 4 5 6 7 8 9 10 11 12 13 14 15 16 17 18 19 20 21 22 23 24 25 26 27 28 29 30 31 32 33 34 35 36 37 38 39 40 41 42 43 44 45 46 47 48 49 50

000
ASUS45 KCYS 041910
RWRWY

WYOMING REGIONAL WEATHER ROUNDUP
NATIONAL WEATHER SERVICE CHEYENNE WY
100 PM MDT SAT JUL 04 2015

NOTE:  "FAIR" INDICATES FEW OR NO CLOUDS BELOW 12,000 FEET
WITH NO SIGNIFICANT WEATHER AND/OR OBSTRUCTIONS TO VISIBILITY.

WYZ001-042000-
YELLOWSTONE NATIONAL PARK

CITY           SKY/WX    TMP DP  RH WIND       PRES   REMARKS
LK YELLOWSTONE   N/A     74  49  41 VRB5      30.20F
W YELLOWSTONE  NOT AVBL

$$
WYZ002>013-054>058-071-098>099-042000-
NORTHERN WYOMING

CITY           SKY/WX    TMP DP  RH WIND       PRES   REMARKS
JACKSON        FAIR      81  48  32 S7        30.08F
CODY           FAIR      90  43  19 NE7       29.94F
GREYBULL       FAIR      93  46  19 VRB3      29.85F
WORLAND        FAIR      90  51  26 N3        29.88F
SHERIDAN       FAIR      92  47  21 VRB3      29.86F
BUFFALO        FAIR      87  48  25 SE6       29.96S
GILLETTE       FAIR      90  49  24 E8        29.90F
HULETT         FAIR      86  52  30 CALM      29.91F
NEWCASTLE      FAIR      82  54  36 W3        29.92S

$$
WYZ014>020-022>026-101>103-042000-
CENTRAL WYOMING

CITY           SKY/WX    TMP DP  RH WIND       PRES   REMARKS
BIG PINEY      FAIR      87  33  14 SW10      30.12F
PINEDALE       FAIR      84  32  15 CALM      30.13F
DUBOIS         FAIR      84  32  15 N12G21    30.10F
LANDER         FAIR      88  50  27 S5        29.98F
RIVERTON       FAIR      88  51  28 E9        29.98F
CASPER         FAIR      90  47  22 SW9       29.97F
DOUGLAS        FAIR      88  50  27 MISG      29.95F

$$
WYZ021-027>030-104>119-042000-
SOUTHERN WYOMING

CITY           SKY/WX    TMP DP  RH WIND       PRES   REMARKS
EVANSTON       FAIR      85  44  23 SW13G26   30.16F THUNDER
KEMMERER       FAIR      82  36  18 W14G21    30.17F
FORT BRIDGER   PTCLDY    86  39  19 W6G17     30.18F
ROCK SPRINGS   FAIR      84  40  21 W12       30.12F
DIXON          FAIR      86  42  21 SW5       30.13F
RAWLINS        FAIR      86  41  20 W8G21     30.10F
SARATOGA       FAIR      86  41  20 W14G25    30.15
LARAMIE        FAIR      82  43  25 NW7       30.14F
CHEYENNE       FAIR      88  47  24 NW15      30.05S
TORRINGTON     FAIR      88  59  37 S9        29.90F
PINE BLUFFS    FAIR      88  50  27 SE6       29.99F

$$


USA.gov is the U.S. government's official web portal to all federal, state and local government web resources and services.